Vorticity
11 13 15 16 16 16 16 13 10 7 7 7 7 6 5 5 4 4 4 3 3 3 3 3 4 4 5 6 6 6 7 7 8 9 10 10 11 11 12 12 13 14 15 16 16 17 18 18 18 18 17 17 16 16 15 15 14 13 13 12 11 10 9 8 8 7 7 7 8 9 10 11 12 13 14 14 14 14 14 14 14 15 15 15 16 16
13 16 19 18 17 15 13 10 8 7 6 6 5 4 3 3 3 3 3 3 2 2 2 3 3 4 5 5 5 5 5 6 6 8 10 11 12 13 14 15 16 17 18 18 19 19 19 19 19 18 17 17 16 15 15 14 13 13 12 11 10 9 8 7 7 7 7 8 8 10 11 12 13 14 14 14 15 15 15 15 15 15 15 16 16 16
16 20 23 19 17 14 9 7 7 7 6 5 3 2 2 2 2 2 2 1 2 2 3 3 4 4 4 4 4 4 4 4 5 7 9 12 13 15 17 18 19 20 20 21 21 21 20 20 19 18 17 16 15 14 14 13 12 11 11 10 9 8 7 6 6 6 7 8 9 11 12 13 14 14 15 15 15 15 15 15 15 15 16 16 16 16
20 20 18 15 14 13 8 5 5 5 4 2 2 2 2 2 2 2 2 2 2 3 3 3 4 5 5 5 5 5 5 5 6 7 10 13 15 17 19 20 21 22 22 22 22 21 21 20 18 17 16 15 14 13 13 12 11 10 10 9 8 7 6 5 6 6 8 10 11 12 13 14 15 15 15 16 16 16 16 15 15 15 16 16 16 16
20 18 13 10 9 8 5 4 3 2 1 1 1 2 2 2 3 3 3 3 4 4 5 5 6 7 8 8 8 8 9 9 9 10 12 14 16 18 20 21 22 22 22 22 22 21 20 19 17 16 15 14 13 12 12 11 10 10 9 8 7 6 5 5 6 8 10 12 13 14 15 16 16 16 16 16 16 16 16 16 15 15 15 15 16 16
16 14 9 8 6 3 1 1 1 1 1 3 3 3 4 4 4 5 5 5 6 6 7 7 8 9 10 11 12 13 14 14 14 15 16 17 18 19 20 20 20 20 20 20 20 19 18 17 16 15 14 13 13 12 11 11 10 9 9 8 7 6 6 7 8 10 13 14 15 16 16 17 17 17 17 16 16 16 15 15 15 15 15 15 16 16
13 11 7 7 4 1 0 1 1 2 3 5 5 5 4 4 5 5 5 6 6 7 7 8 8 9 11 12 13 14 16 17 18 19 20 20 20 20 20 20 19 19 19 18 18 18 17 16 15 15 14 13 13 12 12 11 10 9 8 7 7 7 7 9 11 13 15 16 16 17 17 17 17 17 17 16 16 15 15 15 15 15 15 15 15 15
7 6 5 4 2 1 3 3 4 4 4 5 6 6 5 4 4 4 5 5 5 6 8 9 10 11 12 13 14 15 16 17 18 19 20 21 21 21 20 19 19 18 18 18 17 17 17 16 15 14 14 13 13 12 12 11 10 9 9 8 9 9 11 13 14 15 16 16 16 17 17 17 17 17 17 16 15 15 15 14 14 14 14 14 14 14
3 1 3 2 1 1 3 5 5 4 4 4 5 6 7 6 5 5 5 6 6 6 8 11 12 12 12 13 14 16 16 17 18 18 19 20 20 19 18 17 17 17 17 17 17 17 17 16 15 14 13 13 12 12 11 11 10 10 10 10 11 12 13 15 16 16 16 16 16 16 17 17 17 17 16 15 15 14 14 13 13 13 13 13 13 13
5 3 2 2 3 4 5 5 4 3 2 3 4 5 6 7 8 8 7 6 6 7 9 12 12 12 11 13 15 17 17 18 19 19 19 18 18 16 15 13 13 13 14 15 16 16 16 15 14 13 13 13 12 12 12 11 11 11 11 12 12 13 14 15 15 16 15 15 16 16 17 17 17 16 16 15 14 13 13 13 13 12 12 12 12 12
6 6 4 4 4 5 5 4 3 3 3 3 3 4 4 6 9 10 9 8 7 8 10 12 13 12 10 12 15 16 16 17 18 19 18 17 15 13 11 10 9 9 9 11 12 13 13 13 13 13 13 14 14 14 14 13 12 12 11 11 12 13 13 14 15 15 15 15 15 16 17 17 17 16 15 14 14 13 12 12 11 11 11 11 11 10
6 6 6 5 5 4 3 3 3 4 4 5 6 5 4 3 5 7 8 9 9 10 12 12 13 14 15 14 14 15 16 16 17 16 16 14 13 11 9 9 8 8 8 8 8 8 9 10 10 11 13 14 15 15 14 13 11 10 9 10 11 12 13 14 15 14 14 14 15 16 17 17 17 16 15 14 13 12 11 11 11 10 10 10 10 10
7 6 5 5 4 4 3 3 4 4 5 5 5 5 4 2 3 4 7 9 11 13 13 13 14 16 18 17 16 16 16 17 16 15 14 12 10 9 9 9 10 10 9 8 7 7 6 6 7 8 10 12 14 14 13 12 10 9 8 10 11 13 14 14 14 14 14 14 15 16 18 18 17 16 15 14 13 12 11 10 10 10 10 9 9 9
6 5 5 5 4 4 3 3 4 4 4 3 2 2 2 3 4 6 9 12 15 16 15 15 15 15 16 17 17 17 16 16 15 13 11 9 8 7 7 7 8 9 9 9 8 7 6 6 6 6 8 10 12 13 13 12 10 9 9 10 12 13 14 14 13 13 13 14 16 17 18 18 17 16 15 14 13 11 11 10 10 10 9 9 9 9
5 4 4 4 4 3 3 2 3 3 2 2 2 2 4 5 7 10 14 15 15 15 15 16 16 17 18 18 18 17 16 14 13 10 8 6 5 4 4 5 5 6 7 8 8 7 7 6 5 5 6 9 11 13 13 12 10 9 9 11 12 13 13 13 13 13 13 15 16 18 18 18 17 16 14 13 12 11 10 10 10 9 9 8 8 8
4 4 4 4 3 3 3 2 2 3 2 2 3 4 6 8 10 13 17 16 15 15 17 16 16 17 20 20 19 17 14 13 11 9 4 3 2 1 3 3 3 3 5 6 7 6 6 6 5 5 6 9 11 13 13 12 10 10 10 11 12 12 12 12 12 13 14 16 17 18 18 18 16 15 14 13 12 11 10 10 9 8 8 8 8 8
4 4 4 3 3 3 3 3 3 2 2 3 4 6 8 10 12 15 19 18 17 18 20 20 19 16 10 14 16 15 9 11 10 7 2 -0 -2 -2 1 3 2 3 5 7 8 9 8 7 7 7 8 10 12 12 12 11 10 10 10 11 11 12 12 12 12 13 15 17 18 18 18 17 16 15 14 13 12 11 10 9 8 8 7 7 8 8
4 4 3 3 3 3 2 2 2 2 2 4 6 8 12 15 18 19 21 19 19 20 20 21 20 14 3 3 3 4 5 10 6 1 -2 -2 -4 -3 2 3 4 4 7 11 14 15 15 14 12 12 12 12 12 12 11 10 10 10 10 10 11 11 12 12 13 14 16 18 18 18 18 17 16 15 14 13 11 10 9 8 7 7 7 7 8 9
4 4 4 4 3 2 2 2 2 2 4 6 8 10 14 18 20 21 21 20 19 19 16 15 13 11 7 5 2 1 8 12 9 3 0 1 2 3 6 7 8 10 13 18 21 23 23 21 19 17 15 13 12 11 10 9 9 9 9 10 11 11 12 12 13 15 17 18 19 18 17 16 16 15 14 12 11 10 9 8 7 7 7 8 8 9
3 4 5 3 2 1 2 2 3 5 7 9 12 16 20 21 23 24 24 19 16 15 13 11 10 9 10 9 10 11 12 14 13 10 10 9 10 11 13 14 16 18 21 24 26 26 26 24 21 18 15 12 11 9 9 9 9 9 10 10 11 12 12 13 14 16 18 18 18 18 17 16 15 15 13 12 11 9 8 8 8 8 9 10 10 11
3 4 4 3 2 2 2 3 5 8 11 13 17 22 26 25 27 28 22 14 9 7 7 8 9 10 10 9 10 12 13 13 13 13 12 12 14 17 20 21 22 22 23 25 25 24 22 20 18 15 12 10 9 8 8 9 9 10 11 11 12 12 13 14 16 17 18 18 18 17 16 16 15 14 13 11 10 9 9 9 9 10 10 12 13 13
3 3 3 3 4 3 3 5 9 13 16 19 23 26 24 23 22 20 12 6 2 1 3 6 7 8 8 9 10 11 12 14 14 13 12 14 17 20 22 22 21 21 22 21 20 19 17 15 13 10 8 7 8 8 9 10 11 11 12 12 12 13 13 15 16 18 18 18 17 16 16 15 14 13 12 11 10 9 9 10 10 11 12 13 14 14
4 3 2 4 5 6 7 10 14 19 22 26 27 26 23 21 17 12 7 6 5 4 5 4 4 5 6 9 10 12 13 14 14 14 15 17 18 19 19 19 20 20 21 19 17 15 13 11 9 7 6 7 8 10 11 12 13 13 13 12 13 13 14 16 17 18 17 17 16 15 15 14 13 12 11 10 10 10 10 11 12 13 14 14 14 15
4 4 4 5 7 9 12 17 20 24 26 27 26 23 19 18 16 13 9 7 7 7 6 5 6 7 10 12 13 14 15 15 15 16 18 18 17 17 18 19 20 20 19 16 13 12 11 9 8 7 7 8 10 13 14 14 14 13 13 13 13 13 15 16 17 17 17 16 15 14 14 13 12 11 11 10 11 11 12 13 13 14 14 14 14 14
4 5 6 8 11 15 19 23 25 26 26 23 20 17 13 11 10 9 8 9 10 10 9 8 9 11 13 14 15 16 16 16 16 17 18 18 17 18 20 19 19 17 14 12 11 10 10 9 8 9 10 12 14 15 15 15 14 13 13 13 13 14 16 17 17 16 16 15 14 13 13 12 12 11 11 11 12 13 13 13 14 14 13 13 14 15
6 8 10 13 17 22 25 27 26 25 22 18 15 12 9 8 7 7 8 10 10 10 9 10 12 13 13 15 16 17 16 16 18 19 18 17 18 19 20 18 16 13 10 9 10 10 11 11 12 13 15 16 17 17 15 14 14 14 13 14 15 16 17 17 16 16 15 14 13 13 12 12 12 12 12 13 13 13 13 13 13 13 13 13 14 16
10 13 16 20 23 25 26 25 22 19 16 13 10 9 7 7 7 7 10 10 10 9 10 12 13 14 15 17 18 18 16 16 18 19 19 19 19 19 18 14 11 9 8 9 11 13 15 16 17 18 19 19 17 16 14 14 15 15 14 15 16 17 17 17 16 15 14 13 13 13 12 12 13 13 13 13 13 13 13 13 12 12 13 14 16 18
15 18 21 23 24 23 22 20 17 14 11 9 8 7 6 6 7 9 11 10 10 12 15 16 16 16 17 19 19 18 18 18 19 19 19 20 20 19 14 10 8 6 6 9 13 16 19 20 20 20 19 17 15 14 14 16 16 16 16 17 17 17 17 16 15 15 14 13 13 13 13 13 13 13 13 13 13 13 12 12 12 13 14 15 17 20
20 22 23 23 22 20 18 15 13 11 9 8 7 6 6 7 9 11 11 10 12 15 19 19 20 19 19 19 19 19 20 21 21 20 18 19 19 16 11 7 5 5 6 10 14 18 20 20 19 17 15 13 13 14 16 17 17 17 17 18 18 17 16 16 15 14 14 13 13 13 12 12 12 12 13 13 13 13 13 12 13 13 14 16 18 20
21 22 22 21 19 17 15 13 11 10 8 7 6 6 7 8 11 13 13 14 17 19 20 20 21 21 20 19 19 20 22 23 22 20 17 18 16 12 8 6 5 6 9 12 14 16 17 15 13 12 11 11 13 16 19 18 18 17 17 18 18 17 16 15 15 14 14 13 13 12 12 12 12 13 13 13 13 13 13 13 13 13 15 16 18 19
20 20 20 18 17 15 13 11 9 8 6 6 7 7 9 11 13 15 17 19 21 22 21 21 21 21 20 20 20 21 23 22 20 18 16 15 13 9 7 6 8 10 13 13 13 13 13 11 10 9 10 12 16 19 20 19 18 17 17 17 17 16 16 15 15 14 13 13 13 13 13 13 13 14 14 14 14 13 13 13 13 14 15 16 18 19
20 20 18 16 14 13 11 9 8 7 6 7 8 10 12 14 17 19 21 22 23 22 22 21 21 21 21 21 22 23 22 19 17 16 15 14 11 9 8 10 12 13 13 11 10 9 10 10 11 12 13 16 19 21 20 18 17 17 17 16 16 15 14 14 13 13 13 13 13 14 14 15 15 15 15 15 15 15 15 15 16 16 17 18 18 19
19 18 16 13 12 10 8 7 7 7 8 9 11 13 15 17 20 22 24 24 23 22 21 20 20 19 20 21 24 25 24 19 16 15 13 14 13 12 13 14 14 13 11 8 7 7 8 11 15 18 18 20 21 22 20 18 17 16 16 15 14 13 13 12 12 12 13 14 15 16 16 16 16 16 16 16 17 17 18 19 19 19 18 18 17 16
16 14 12 11 9 8 7 7 7 8 10 12 14 16 18 20 22 23 24 24 23 22 21 20 18 17 16 18 21 23 23 18 16 15 15 15 14 14 14 13 12 10 8 7 8 9 10 13 18 21 23 23 22 21 19 17 16 15 14 13 12 11 10 11 12 13 14 16 16 17 17 16 16 17 17 19 20 21 22 22 21 20 19 16 13 9
13 12 10 9 8 7 7 8 9 10 13 15 17 19 20 22 23 23 23 22 21 20 20 20 18 16 15 15 16 17 17 14 13 13 13 13 12 11 10 8 8 8 9 10 12 14 16 18 20 22 25 24 22 19 17 16 15 14 13 12 11 9 9 10 12 14 16 16 17 17 17 16 17 18 20 22 23 23 23 21 20 18 17 13 9 5
11 10 9 8 7 7 8 9 11 13 16 19 20 22 23 24 24 23 22 21 20 19 19 19 19 19 18 17 15 14 11 10 9 9 8 9 9 8 7 7 8 10 12 13 15 18 20 22 22 22 23 23 21 18 15 14 14 14 13 11 10 9 8 10 13 15 16 17 17 17 16 16 18 20 22 23 23 22 20 17 14 11 9 6 3 -0
10 9 8 8 8 9 10 13 15 17 20 21 22 24 24 24 24 23 21 20 19 19 19 19 19 19 19 17 15 13 10 8 6 6 6 9 10 10 10 11 13 14 16 18 20 22 22 23 22 21 20 19 18 16 14 14 14 14 13 11 9 9 9 11 13 15 16 17 18 18 17 17 18 19 19 19 18 17 15 12 9 4 -1 -5 -8 -9
10 9 9 10 11 12 14 17 20 22 23 23 24 24 24 24 23 21 20 20 20 20 20 18 17 15 13 11 9 8 7 6 7 8 10 13 14 15 16 17 18 19 20 21 23 23 22 21 20 19 18 16 15 14 13 13 13 13 13 11 10 9 10 13 15 16 18 19 19 18 17 16 16 14 12 10 9 9 9 8 6 2 -2 -5 -7 -8
9 10 10 13 15 17 19 22 23 24 25 25 25 24 24 23 21 20 20 21 21 20 19 16 13 10 7 6 5 6 7 10 12 14 16 18 19 20 20 21 22 23 23 23 23 22 19 17 16 16 16 15 14 12 11 11 11 12 13 12 11 10 11 14 16 19 21 21 19 18 15 14 12 9 6 4 3 3 4 5 5 5 4 4 4 5
10 12 14 17 20 22 24 25 25 25 25 25 24 24 22 21 20 20 21 21 20 17 13 10 7 5 4 4 5 8 11 14 17 19 21 22 22 22 21 22 23 24 25 23 22 20 16 14 13 13 14 13 13 12 11 10 10 11 12 12 12 13 16 17 19 20 21 20 18 15 13 11 9 6 4 2 1 1 1 4 7 10 12 13 15 17
13 16 20 22 24 26 28 27 26 25 24 23 22 21 20 19 19 19 19 17 14 10 7 4 3 3 3 4 7 10 14 17 19 21 22 23 23 22 21 21 22 23 23 22 20 18 15 13 13 13 13 12 12 11 10 9 9 9 10 11 14 18 20 19 19 19 19 16 14 12 10 9 7 6 5 4 2 2 3 7 12 15 18 20 21 22
18 21 24 25 26 27 27 26 25 25 23 22 21 21 19 18 17 16 13 11 8 6 4 4 3 3 3 3 6 10 15 19 21 23 23 22 22 22 21 21 21 21 21 20 18 17 15 13 12 13 13 12 12 11 10 9 7 6 6 10 15 19 18 16 16 16 15 12 10 8 6 7 7 7 7 7 6 7 9 13 17 19 20 20 19 19
23 26 27 27 27 26 24 23 23 23 20 21 21 20 18 16 15 12 10 7 5 5 4 4 5 4 3 3 4 7 12 17 21 24 24 22 21 20 19 19 19 20 19 18 17 16 14 13 12 11 10 11 11 10 10 8 7 5 5 10 16 18 16 16 15 13 9 8 6 5 5 6 8 9 10 10 12 13 16 18 18 17 16 15 14 13
26 27 27 26 25 24 23 24 23 21 18 19 19 17 15 13 11 9 7 5 4 4 3 3 3 2 2 2 5 8 13 17 20 22 22 21 19 18 17 17 17 18 18 17 17 16 14 12 11 10 9 9 9 9 9 7 7 7 8 11 13 12 9 11 11 9 6 5 5 6 7 9 10 12 13 14 15 16 17 16 15 13 12 11 10 10
25 25 25 24 22 22 23 23 21 18 18 18 17 14 11 10 8 7 5 4 3 2 2 2 2 1 1 2 5 10 16 19 21 21 21 19 18 16 15 15 16 17 17 15 15 14 13 12 11 10 9 8 8 8 7 6 7 8 11 13 12 9 7 7 7 7 6 6 7 8 11 12 14 14 15 15 15 14 13 13 12 11 11 10 10 10
24 24 23 22 22 23 24 21 18 17 17 16 14 12 9 7 6 5 3 3 2 1 0 0 0 1 2 3 6 11 17 21 23 24 22 20 17 15 13 13 15 16 17 15 13 12 11 10 10 10 9 9 8 7 6 5 7 9 13 15 13 11 8 8 7 6 6 8 9 11 13 14 15 15 15 14 13 12 11 11 11 11 11 11 11 11
23 23 23 22 23 24 24 22 19 18 16 14 11 8 6 6 5 3 2 2 2 1 -0 -1 -0 1 2 3 7 12 18 23 25 25 24 20 17 15 13 13 13 13 14 14 13 11 10 9 10 10 10 10 10 8 6 5 6 9 12 14 12 10 8 6 6 6 8 9 10 12 14 14 14 14 14 13 12 12 11 12 12 13 13 13 13 12
22 23 23 23 24 25 24 22 19 16 13 10 8 6 6 5 4 3 2 2 2 1 0 0 2 3 4 4 6 11 18 24 27 27 24 19 16 14 13 13 12 12 11 11 10 10 10 9 9 9 9 10 10 10 8 6 6 8 11 11 10 8 6 5 6 7 9 10 11 11 12 12 12 13 14 13 13 13 13 13 13 14 14 14 14 13
22 23 24 25 26 26 25 20 16 13 10 7 6 6 6 4 4 3 4 3 3 2 1 2 3 4 5 4 7 12 19 23 25 25 22 18 15 14 14 14 13 12 11 11 10 9 9 10 10 10 9 9 10 11 10 9 9 9 11 11 9 7 5 6 7 9 11 12 11 11 10 9 10 12 13 14 14 14 14 14 14 14 15 15 15 14
23 25 26 28 28 27 23 18 13 11 8 6 6 5 5 5 4 3 3 4 3 2 1 3 4 5 5 5 8 14 21 24 24 23 19 16 15 14 15 15 15 14 13 13 12 12 12 12 12 11 11 10 10 12 13 13 13 13 12 11 8 7 6 8 10 11 13 13 12 11 11 10 10 11 12 13 13 14 15 15 15 15 16 16 16 15
24 26 28 30 30 27 21 16 12 8 6 5 5 5 5 5 4 4 3 3 2 2 2 3 4 5 5 5 8 14 21 25 25 22 18 15 14 14 15 15 15 15 14 14 14 14 13 13 12 12 12 12 12 13 14 15 14 13 12 10 8 8 9 11 13 13 13 12 12 12 12 11 11 11 11 12 12 13 14 15 16 16 16 17 17 17
Height
3045 3044 3042 3040 3039 3038 3037 3036 3034 3033 3031 3030 3029 3028 3026 3024 3023 3021 3020 3018 3016 3015 3013 3012 3010 3009 3008 3006 3005 3003 3001 2999 2997 2994 2992 2990 2988 2986 2984 2982 2980 2978 2976 2974 2972 2970 2968 2967 2965 2964 2962 2960 2959 2958 2957 2955 2954 2952 2951 2949 2948 2947 2945 2944 2942 2940 2939 2938 2937 2935 2934 2933 2931 2929 2928 2926 2925 2924 2922 2921 2919 2918 2917 2917 2916 2915
3042 3041 3039 3038 3036 3035 3034 3033 3032 3030 3029 3027 3026 3024 3023 3021 3020 3019 3017 3015 3014 3012 3011 3009 3008 3006 3005 3004 3002 3000 2998 2996 2994 2992 2989 2987 2984 2982 2980 2978 2976 2974 2972 2970 2968 2967 2965 2963 2962 2960 2959 2957 2956 2955 2954 2952 2951 2949 2948 2946 2945 2944 2942 2940 2939 2937 2936 2935 2934 2932 2931 2929 2928 2926 2924 2923 2921 2920 2919 2918 2916 2915 2914 2914 2913 2912
3039 3038 3037 3035 3034 3032 3031 3029 3028 3027 3026 3024 3023 3021 3020 3018 3017 3015 3014 3012 3011 3009 3008 3006 3004 3003 3001 2999 2998 2996 2994 2992 2990 2988 2986 2983 2981 2979 2976 2974 2972 2970 2968 2967 2965 2963 2961 2960 2959 2957 2956 2954 2953 2952 2950 2949 2948 2946 2945 2944 2942 2940 2939 2937 2936 2934 2933 2932 2931 2929 2928 2926 2924 2923 2921 2919 2918 2917 2915 2914 2914 2913 2912 2911 2910 2909
3037 3035 3034 3032 3031 3029 3028 3027 3025 3024 3023 3021 3019 3018 3016 3015 3013 3012 3010 3009 3007 3005 3003 3002 3000 2998 2996 2994 2993 2991 2989 2988 2986 2984 2981 2979 2977 2974 2972 2970 2968 2966 2964 2963 2961 2960 2958 2957 2955 2954 2953 2952 2950 2949 2948 2946 2945 2944 2942 2940 2939 2937 2936 2934 2933 2932 2930 2929 2928 2926 2924 2923 2921 2919 2918 2916 2915 2914 2912 2911 2910 2910 2909 2908 2907 2906
3034 3033 3031 3029 3028 3027 3025 3024 3023 3021 3019 3018 3016 3014 3013 3011 3009 3007 3005 3004 3002 3000 2998 2997 2995 2993 2991 2989 2987 2985 2984 2982 2980 2979 2977 2974 2972 2970 2968 2966 2964 2963 2961 2959 2958 2957 2955 2954 2953 2951 2950 2949 2948 2946 2945 2944 2942 2940 2939 2938 2936 2934 2933 2932 2930 2929 2928 2926 2924 2923 2921 2919 2918 2916 2914 2913 2912 2910 2909 2909 2908 2907 2906 2905 2904 2903
3032 3030 3028 3027 3025 3024 3023 3021 3020 3018 3016 3014 3012 3010 3009 3006 3004 3002 3000 2999 2997 2995 2994 2992 2990 2988 2986 2984 2982 2980 2978 2977 2975 2973 2971 2969 2968 2966 2964 2962 2961 2959 2958 2956 2955 2954 2952 2951 2950 2949 2948 2946 2945 2944 2942 2941 2939 2938 2936 2935 2933 2932 2930 2929 2928 2926 2925 2923 2922 2920 2918 2916 2914 2913 2911 2910 2909 2907 2907 2906 2904 2904 2903 2902 2901 2900
3029 3028 3026 3024 3023 3021 3020 3019 3017 3015 3013 3010 3008 3006 3004 3003 3001 2999 2997 2995 2994 2992 2990 2988 2986 2984 2982 2980 2978 2976 2974 2972 2970 2969 2967 2965 2964 2962 2960 2959 2957 2956 2955 2953 2952 2951 2950 2949 2947 2946 2945 2944 2942 2941 2940 2938 2937 2935 2934 2932 2930 2929 2928 2926 2925 2924 2922 2920 2919 2917 2915 2913 2911 2909 2908 2907 2906 2904 2904 2903 2902 2901 2900 2899 2898 2897
3026 3025 3024 3022 3020 3018 3017 3016 3015 3013 3010 3007 3005 3003 3001 2999 2998 2996 2994 2993 2991 2989 2987 2984 2982 2980 2979 2977 2975 2973 2971 2969 2967 2965 2964 2962 2961 2959 2958 2956 2954 2953 2952 2951 2949 2948 2947 2946 2945 2944 2943 2941 2940 2939 2937 2936 2934 2932 2931 2929 2928 2926 2925 2924 2922 2921 2919 2918 2916 2914 2912 2910 2908 2906 2905 2904 2903 2902 2901 2899 2899 2898 2897 2896 2895 2895
3024 3022 3021 3019 3018 3016 3014 3013 3011 3010 3007 3004 3002 3000 2998 2996 2994 2993 2991 2990 2988 2986 2984 2981 2979 2977 2975 2974 2972 2971 2969 2966 2964 2963 2961 2960 2958 2956 2955 2954 2952 2951 2950 2948 2947 2946 2945 2944 2943 2941 2940 2939 2937 2936 2934 2933 2931 2930 2928 2927 2925 2924 2922 2921 2919 2918 2916 2915 2913 2911 2909 2907 2906 2904 2903 2901 2900 2899 2898 2897 2896 2895 2895 2894 2893 2892
3021 3020 3018 3016 3015 3014 3012 3009 3008 3006 3004 3002 3000 2998 2996 2994 2991 2989 2987 2985 2984 2983 2981 2979 2977 2975 2972 2970 2969 2968 2966 2964 2962 2961 2959 2958 2956 2954 2953 2952 2950 2949 2948 2947 2946 2944 2943 2942 2941 2939 2938 2936 2935 2934 2932 2930 2929 2927 2925 2924 2922 2921 2919 2918 2917 2915 2914 2912 2910 2908 2906 2905 2903 2902 2900 2899 2897 2896 2895 2894 2894 2893 2892 2891 2890 2890
3019 3017 3015 3014 3012 3010 3009 3007 3005 3003 3001 2999 2997 2994 2993 2991 2989 2986 2984 2982 2981 2980 2978 2976 2974 2972 2970 2968 2966 2964 2963 2961 2960 2958 2957 2955 2954 2952 2951 2949 2948 2947 2946 2945 2944 2943 2942 2940 2939 2937 2936 2934 2933 2931 2929 2928 2926 2924 2922 2921 2919 2918 2917 2915 2914 2912 2911 2909 2907 2905 2904 2902 2900 2899 2898 2896 2895 2894 2893 2892 2891 2890 2889 2889 2888 2888
3016 3014 3013 3011 3009 3007 3006 3004 3002 3000 2998 2996 2994 2991 2989 2988 2986 2984 2982 2979 2978 2976 2974 2972 2970 2968 2967 2966 2964 2961 2959 2958 2956 2955 2954 2952 2950 2949 2947 2946 2944 2944 2943 2942 2941 2940 2939 2938 2936 2934 2933 2932 2930 2928 2927 2924 2923 2921 2919 2917 2916 2915 2914 2912 2911 2909 2908 2906 2905 2903 2901 2900 2898 2897 2895 2894 2893 2892 2890 2890 2889 2888 2887 2886 2886 2885
3014 3012 3010 3008 3006 3004 3003 3001 2999 2997 2995 2994 2992 2990 2988 2986 2984 2982 2979 2976 2974 2972 2970 2968 2966 2964 2963 2962 2960 2958 2956 2954 2952 2951 2950 2949 2947 2945 2944 2942 2940 2939 2939 2938 2937 2936 2936 2934 2933 2932 2930 2929 2927 2925 2924 2922 2919 2918 2916 2914 2913 2912 2910 2909 2908 2907 2905 2904 2902 2900 2899 2897 2896 2894 2893 2892 2890 2889 2889 2888 2887 2886 2885 2884 2884 2883
3011 3009 3007 3005 3004 3002 3000 2999 2997 2995 2993 2991 2990 2987 2985 2982 2980 2978 2975 2972 2970 2968 2967 2965 2963 2961 2960 2959 2957 2954 2952 2950 2948 2947 2946 2944 2943 2942 2940 2939 2937 2936 2935 2934 2933 2933 2932 2931 2930 2929 2927 2926 2924 2923 2921 2919 2917 2914 2913 2911 2910 2909 2908 2906 2905 2904 2903 2901 2899 2898 2896 2895 2893 2892 2891 2890 2889 2888 2886 2885 2885 2884 2883 2882 2881 2880
3008 3006 3004 3002 3001 3000 2998 2996 2994 2992 2990 2988 2986 2984 2981 2978 2976 2974 2971 2969 2967 2965 2963 2961 2959 2957 2956 2955 2954 2951 2949 2946 2944 2943 2942 2941 2940 2939 2938 2936 2935 2934 2933 2931 2930 2929 2929 2928 2927 2925 2924 2923 2921 2919 2918 2916 2914 2912 2910 2908 2907 2906 2905 2904 2902 2901 2900 2898 2897 2895 2894 2893 2891 2890 2889 2888 2886 2885 2884 2884 2883 2882 2881 2880 2879 2879
3005 3003 3001 3000 2998 2997 2995 2994 2991 2989 2986 2984 2982 2979 2977 2975 2972 2970 2968 2966 2964 2962 2960 2958 2955 2953 2951 2950 2950 2949 2947 2944 2942 2940 2940 2938 2937 2936 2936 2934 2932 2931 2930 2929 2928 2927 2926 2925 2924 2923 2922 2920 2919 2917 2915 2913 2911 2909 2907 2906 2904 2903 2902 2901 2900 2898 2897 2896 2894 2893 2891 2890 2889 2888 2887 2885 2884 2883 2882 2881 2880 2880 2879 2878 2877 2877
3003 3001 2999 2997 2995 2994 2992 2989 2987 2985 2983 2980 2978 2976 2974 2972 2970 2968 2966 2963 2961 2959 2956 2954 2953 2951 2949 2947 2946 2946 2945 2944 2941 2939 2938 2937 2935 2934 2933 2932 2930 2928 2927 2926 2925 2924 2923 2922 2921 2920 2919 2918 2916 2914 2913 2911 2909 2907 2905 2903 2902 2901 2899 2898 2897 2896 2894 2893 2892 2890 2889 2888 2887 2886 2884 2884 2882 2881 2880 2879 2879 2877 2876 2876 2875 2874
3000 2998 2996 2994 2992 2991 2989 2987 2984 2982 2979 2977 2975 2973 2971 2969 2968 2966 2964 2961 2959 2957 2955 2953 2951 2949 2948 2946 2945 2944 2944 2943 2941 2939 2937 2935 2933 2932 2931 2929 2927 2925 2924 2923 2922 2921 2920 2919 2918 2917 2916 2915 2914 2912 2910 2908 2906 2904 2903 2901 2899 2898 2897 2896 2894 2893 2892 2891 2889 2888 2887 2886 2884 2884 2882 2881 2880 2879 2879 2878 2877 2875 2874 2874 2873 2872
2997 2996 2994 2992 2989 2987 2985 2984 2982 2980 2977 2975 2973 2971 2969 2967 2965 2963 2961 2959 2957 2955 2954 2952 2950 2948 2947 2945 2943 2942 2942 2940 2938 2936 2934 2932 2931 2930 2929 2927 2925 2923 2921 2920 2919 2918 2917 2916 2915 2914 2914 2912 2911 2909 2908 2906 2904 2902 2900 2898 2897 2895 2894 2893 2892 2891 2889 2889 2887 2886 2885 2884 2883 2882 2881 2879 2879 2878 2877 2876 2875 2874 2873 2872 2871 2870
2994 2993 2992 2989 2987 2984 2982 2980 2979 2977 2975 2973 2970 2968 2966 2964 2962 2959 2957 2955 2954 2953 2951 2950 2948 2946 2944 2943 2941 2940 2939 2938 2935 2933 2931 2929 2928 2927 2927 2925 2923 2920 2919 2917 2916 2915 2914 2913 2912 2912 2911 2909 2908 2907 2905 2904 2902 2900 2898 2896 2894 2893 2892 2891 2889 2888 2887 2886 2885 2884 2883 2882 2881 2879 2879 2878 2877 2876 2875 2874 2873 2872 2871 2870 2869 2868
2991 2989 2988 2987 2984 2982 2979 2978 2976 2974 2973 2970 2968 2965 2963 2960 2959 2957 2955 2954 2952 2950 2948 2947 2946 2944 2943 2941 2939 2938 2937 2935 2933 2930 2928 2926 2925 2925 2924 2922 2920 2918 2916 2915 2914 2913 2912 2911 2910 2909 2908 2907 2906 2905 2903 2902 2899 2898 2895 2894 2892 2891 2889 2888 2887 2886 2885 2884 2883 2882 2881 2879 2879 2878 2877 2876 2875 2874 2873 2872 2871 2870 2869 2868 2867 2866
2989 2987 2985 2984 2982 2979 2977 2975 2973 2972 2970 2968 2965 2963 2961 2959 2957 2956 2954 2952 2950 2948 2945 2944 2943 2942 2940 2939 2937 2935 2934 2932 2930 2928 2925 2923 2922 2921 2921 2919 2917 2915 2914 2912 2911 2911 2910 2909 2908 2907 2906 2905 2904 2903 2901 2899 2897 2895 2893 2891 2890 2888 2887 2886 2885 2884 2883 2882 2881 2879 2879 2878 2877 2876 2875 2874 2873 2872 2871 2870 2869 2868 2867 2866 2865 2864
2986 2984 2983 2981 2979 2977 2975 2973 2971 2969 2967 2965 2963 2961 2959 2958 2956 2954 2952 2950 2948 2945 2944 2942 2940 2939 2938 2936 2934 2932 2931 2929 2927 2925 2923 2921 2919 2918 2918 2917 2914 2913 2911 2910 2909 2908 2908 2907 2906 2905 2904 2903 2902 2901 2899 2897 2895 2893 2891 2889 2887 2886 2885 2884 2883 2882 2881 2879 2879 2878 2877 2876 2875 2874 2873 2872 2871 2870 2869 2868 2867 2866 2865 2864 2863 2862
2984 2982 2980 2979 2977 2974 2972 2970 2968 2966 2964 2962 2960 2958 2956 2955 2953 2951 2949 2947 2945 2943 2941 2939 2937 2935 2934 2933 2931 2929 2927 2925 2923 2922 2920 2918 2917 2915 2915 2914 2912 2910 2909 2908 2907 2906 2905 2905 2904 2903 2902 2901 2900 2899 2897 2895 2893 2891 2889 2887 2885 2884 2883 2882 2881 2880 2879 2878 2877 2876 2875 2874 2873 2872 2871 2870 2869 2868 2867 2866 2865 2864 2863 2862 2861 2860
2982 2980 2978 2976 2974 2972 2969 2967 2965 2963 2961 2959 2957 2955 2953 2952 2950 2948 2947 2945 2943 2941 2939 2937 2935 2933 2932 2930 2928 2926 2924 2922 2920 2919 2918 2916 2914 2913 2912 2911 2909 2908 2906 2905 2905 2904 2904 2903 2902 2901 2900 2899 2898 2897 2895 2893 2891 2889 2887 2885 2884 2883 2881 2880 2879 2878 2877 2876 2875 2874 2874 2873 2872 2870 2869 2869 2868 2866 2865 2864 2863 2862 2861 2860 2859 2858
2979 2977 2975 2973 2971 2969 2966 2964 2962 2960 2958 2956 2954 2953 2951 2949 2947 2946 2944 2943 2941 2939 2936 2934 2933 2931 2929 2927 2925 2923 2921 2919 2918 2917 2915 2914 2912 2911 2910 2909 2907 2906 2904 2903 2903 2902 2901 2900 2899 2899 2898 2897 2896 2894 2893 2891 2889 2887 2885 2884 2882 2881 2880 2879 2878 2877 2876 2875 2874 2873 2872 2871 2870 2869 2868 2867 2866 2865 2864 2863 2861 2860 2859 2858 2857 2856
2975 2973 2971 2969 2967 2965 2964 2962 2960 2958 2956 2954 2952 2950 2949 2947 2945 2943 2942 2940 2939 2936 2934 2932 2930 2928 2926 2925 2923 2921 2919 2917 2915 2914 2913 2912 2910 2909 2908 2907 2905 2904 2902 2901 2900 2900 2899 2898 2897 2897 2896 2895 2894 2893 2891 2889 2887 2885 2883 2882 2881 2880 2879 2878 2876 2875 2874 2873 2872 2871 2870 2869 2869 2868 2866 2865 2864 2863 2862 2861 2859 2858 2857 2856 2855 2854
2972 2970 2968 2966 2964 2963 2961 2959 2958 2956 2954 2953 2951 2949 2946 2945 2943 2941 2939 2938 2936 2934 2932 2930 2928 2925 2923 2922 2920 2919 2917 2915 2913 2912 2911 2910 2908 2907 2906 2905 2904 2902 2900 2899 2898 2898 2898 2897 2896 2895 2894 2893 2892 2890 2889 2887 2885 2883 2882 2881 2880 2879 2877 2876 2875 2874 2873 2872 2871 2870 2869 2868 2867 2866 2865 2864 2863 2862 2860 2859 2858 2856 2855 2854 2853 2851
2970 2968 2966 2964 2962 2960 2959 2957 2955 2954 2952 2950 2948 2946 2944 2943 2941 2939 2937 2935 2933 2931 2929 2927 2925 2923 2921 2919 2918 2917 2915 2913 2911 2910 2909 2908 2906 2905 2904 2903 2902 2900 2899 2897 2896 2895 2896 2895 2894 2893 2892 2891 2890 2888 2887 2885 2883 2882 2881 2880 2879 2878 2876 2875 2874 2873 2872 2871 2870 2869 2868 2867 2866 2865 2864 2863 2862 2860 2859 2858 2856 2855 2853 2852 2851 2850
2967 2965 2963 2961 2959 2958 2956 2954 2953 2951 2949 2947 2945 2944 2941 2940 2938 2936 2934 2932 2930 2929 2926 2924 2923 2921 2919 2918 2916 2914 2913 2911 2910 2909 2908 2906 2905 2904 2903 2902 2901 2899 2898 2895 2894 2893 2893 2893 2893 2892 2891 2889 2888 2886 2884 2883 2881 2880 2879 2879 2878 2876 2875 2874 2873 2872 2871 2870 2869 2868 2867 2866 2865 2864 2863 2862 2860 2859 2858 2856 2855 2853 2852 2851 2850 2849
2964 2962 2960 2958 2956 2954 2953 2952 2950 2948 2947 2945 2943 2941 2939 2937 2935 2934 2932 2930 2928 2926 2924 2922 2921 2919 2918 2916 2914 2913 2911 2910 2908 2907 2906 2905 2904 2902 2901 2900 2899 2898 2897 2895 2893 2891 2889 2889 2890 2890 2889 2888 2886 2885 2883 2881 2880 2879 2878 2877 2876 2875 2874 2873 2872 2871 2870 2869 2868 2867 2866 2865 2864 2863 2862 2860 2859 2858 2857 2855 2854 2853 2851 2850 2849 2848
2960 2959 2957 2955 2954 2952 2950 2949 2947 2946 2944 2942 2940 2938 2936 2934 2932 2930 2929 2927 2925 2924 2922 2920 2919 2917 2916 2914 2913 2912 2910 2908 2907 2906 2905 2904 2903 2901 2900 2899 2898 2897 2896 2894 2893 2890 2889 2887 2887 2887 2887 2886 2885 2883 2881 2880 2879 2878 2877 2876 2875 2874 2874 2873 2871 2870 2869 2869 2868 2867 2866 2864 2863 2862 2861 2859 2858 2857 2856 2855 2854 2852 2851 2850 2849 2848
2958 2956 2954 2953 2951 2950 2948 2947 2945 2943 2941 2939 2937 2935 2933 2931 2930 2928 2926 2925 2923 2922 2920 2919 2917 2916 2914 2913 2912 2910 2909 2907 2906 2905 2904 2903 2901 2900 2899 2898 2897 2896 2894 2893 2892 2890 2889 2887 2885 2885 2885 2884 2883 2882 2880 2879 2878 2877 2876 2875 2874 2874 2873 2872 2871 2870 2869 2868 2867 2866 2865 2864 2863 2861 2860 2859 2858 2857 2855 2854 2853 2852 2851 2849 2849 2848
2955 2954 2952 2951 2949 2947 2946 2944 2943 2941 2939 2937 2935 2933 2931 2929 2928 2926 2924 2923 2922 2920 2919 2917 2916 2914 2913 2912 2911 2909 2908 2907 2905 2904 2903 2902 2900 2899 2898 2897 2896 2894 2893 2892 2891 2889 2888 2887 2885 2884 2883 2883 2882 2881 2879 2879 2877 2876 2875 2874 2874 2873 2872 2871 2870 2869 2868 2867 2866 2865 2864 2863 2862 2860 2859 2858 2857 2856 2855 2854 2853 2852 2851 2849 2849 2848
2953 2951 2950 2949 2947 2945 2943 2942 2940 2938 2936 2934 2932 2930 2929 2927 2925 2924 2923 2922 2920 2919 2918 2916 2915 2914 2912 2911 2910 2909 2907 2906 2905 2904 2902 2901 2900 2898 2897 2896 2894 2893 2892 2890 2889 2888 2886 2885 2884 2883 2882 2881 2881 2880 2879 2878 2877 2876 2875 2874 2873 2872 2871 2870 2869 2868 2868 2867 2865 2864 2863 2862 2861 2860 2859 2858 2857 2856 2855 2854 2853 2852 2851 2850 2849 2848
2951 2949 2948 2946 2944 2943 2941 2939 2937 2935 2934 2932 2930 2928 2927 2925 2924 2923 2921 2920 2919 2918 2916 2915 2914 2913 2912 2910 2909 2908 2907 2906 2904 2903 2902 2900 2899 2897 2896 2894 2893 2892 2890 2889 2888 2886 2885 2884 2884 2883 2882 2881 2880 2879 2879 2878 2877 2876 2875 2874 2873 2872 2871 2869 2869 2868 2867 2866 2865 2864 2862 2861 2860 2859 2858 2857 2857 2856 2855 2854 2853 2853 2852 2851 2849 2848
2949 2947 2946 2944 2942 2940 2938 2936 2935 2933 2931 2929 2928 2926 2925 2924 2922 2921 2920 2919 2918 2917 2916 2914 2914 2912 2911 2910 2909 2908 2907 2905 2904 2903 2901 2899 2898 2896 2895 2893 2892 2891 2889 2888 2886 2885 2884 2883 2882 2882 2881 2880 2879 2879 2878 2877 2877 2876 2875 2874 2873 2871 2870 2869 2868 2867 2866 2865 2864 2863 2862 2861 2860 2859 2858 2857 2857 2856 2855 2854 2854 2853 2852 2851 2850 2848
2947 2945 2943 2941 2939 2938 2936 2934 2932 2930 2929 2927 2926 2924 2923 2922 2921 2920 2919 2918 2917 2916 2915 2914 2913 2912 2911 2910 2909 2908 2906 2905 2903 2902 2900 2898 2897 2895 2894 2892 2891 2890 2889 2887 2886 2884 2884 2882 2882 2881 2881 2880 2879 2878 2877 2877 2876 2875 2875 2874 2873 2871 2870 2869 2868 2867 2866 2865 2864 2863 2862 2861 2860 2859 2858 2857 2857 2856 2855 2854 2854 2853 2852 2851 2849 2848
2944 2943 2941 2939 2937 2935 2933 2931 2929 2928 2927 2925 2924 2923 2922 2921 2920 2919 2918 2917 2916 2915 2914 2914 2913 2912 2911 2909 2909 2907 2906 2904 2903 2901 2899 2897 2895 2894 2892 2891 2890 2889 2888 2887 2885 2884 2883 2882 2881 2881 2880 2879 2879 2878 2877 2876 2876 2875 2874 2874 2873 2872 2870 2869 2868 2867 2866 2865 2864 2863 2862 2861 2860 2859 2858 2857 2856 2856 2855 2854 2853 2852 2851 2850 2849 2848
2942 2940 2939 2936 2934 2933 2931 2929 2927 2926 2924 2924 2923 2922 2921 2920 2919 2918 2917 2916 2915 2915 2914 2913 2912 2911 2910 2909 2908 2907 2905 2904 2902 2900 2898 2896 2894 2893 2891 2890 2889 2888 2887 2886 2885 2884 2883 2882 2882 2881 2880 2879 2879 2878 2877 2876 2875 2875 2874 2873 2873 2872 2870 2869 2868 2867 2866 2865 2864 2863 2862 2861 2860 2859 2858 2857 2856 2855 2854 2854 2852 2851 2850 2849 2848 2847
2939 2937 2935 2934 2932 2930 2928 2927 2925 2924 2923 2922 2921 2920 2920 2919 2918 2918 2917 2916 2915 2914 2914 2913 2912 2911 2909 2908 2907 2905 2904 2902 2900 2898 2897 2895 2894 2892 2891 2890 2889 2888 2887 2886 2885 2884 2883 2882 2882 2881 2880 2880 2879 2878 2877 2876 2875 2874 2874 2873 2872 2871 2870 2869 2868 2867 2866 2865 2864 2863 2862 2861 2860 2859 2858 2858 2857 2855 2854 2853 2851 2850 2849 2848 2847 2845
2936 2934 2933 2931 2929 2928 2926 2924 2924 2923 2922 2921 2920 2920 2919 2919 2918 2917 2916 2916 2915 2914 2913 2912 2911 2910 2909 2908 2906 2904 2902 2900 2898 2897 2895 2894 2893 2892 2890 2889 2888 2888 2887 2886 2885 2884 2884 2883 2882 2881 2880 2880 2879 2878 2878 2877 2876 2875 2874 2873 2872 2871 2870 2869 2868 2867 2866 2865 2864 2864 2863 2862 2860 2859 2859 2858 2857 2855 2854 2852 2851 2850 2848 2847 2846 2845
2933 2932 2930 2928 2927 2925 2924 2923 2922 2922 2921 2920 2919 2919 2919 2918 2917 2917 2916 2915 2914 2913 2912 2912 2911 2910 2909 2907 2906 2904 2902 2900 2898 2896 2894 2893 2892 2891 2890 2889 2888 2887 2887 2886 2885 2884 2884 2883 2882 2881 2880 2880 2879 2879 2878 2877 2876 2875 2874 2873 2872 2871 2870 2869 2868 2868 2867 2866 2865 2864 2863 2862 2861 2860 2859 2858 2856 2855 2854 2852 2851 2849 2848 2847 2845 2844
2931 2929 2928 2926 2925 2924 2923 2922 2921 2921 2920 2919 2919 2919 2918 2917 2917 2916 2915 2914 2914 2913 2912 2911 2910 2909 2908 2906 2905 2904 2902 2900 2898 2896 2894 2893 2892 2891 2890 2889 2888 2888 2887 2886 2885 2884 2884 2883 2882 2882 2881 2880 2879 2879 2878 2877 2876 2875 2874 2873 2872 2871 2870 2869 2869 2868 2867 2866 2865 2864 2863 2862 2861 2860 2859 2858 2856 2855 2854 2852 2851 2849 2848 2847 2845 2844
2929 2927 2926 2924 2923 2922 2921 2921 2920 2920 2919 2919 2919 2918 2918 2917 2916 2916 2915 2914 2913 2913 2912 2911 2909 2909 2907 2906 2904 2903 2901 2900 2898 2896 2895 2894 2892 2891 2890 2889 2889 2888 2887 2886 2885 2885 2884 2883 2883 2882 2881 2880 2879 2879 2878 2877 2876 2875 2874 2874 2873 2872 2871 2870 2869 2868 2867 2866 2865 2864 2863 2862 2861 2860 2859 2858 2856 2855 2854 2852 2851 2849 2848 2846 2845 2843
2927 2925 2924 2923 2922 2921 2920 2920 2919 2919 2919 2919 2918 2918 2917 2917 2916 2915 2915 2914 2913 2912 2911 2910 2909 2908 2906 2905 2904 2902 2900 2899 2897 2896 2895 2894 2893 2891 2890 2889 2889 2888 2887 2886 2886 2885 2884 2884 2883 2882 2882 2881 2880 2879 2878 2877 2877 2876 2875 2874 2873 2872 2872 2871 2869 2868 2867 2866 2865 2864 2864 2863 2861 2860 2859 2858 2856 2855 2854 2852 2850 2849 2847 2846 2844 2843
2925 2924 2923 2922 2921 2920 2919 2919 2919 2919 2918 2918 2918 2918 2917 2917 2916 2915 2914 2914 2913 2912 2911 2910 2909 2908 2906 2905 2903 2901 2900 2898 2897 2895 2894 2894 2893 2892 2891 2890 2889 2888 2887 2887 2886 2885 2885 2884 2883 2883 2882 2881 2881 2880 2879 2878 2877 2876 2875 2874 2874 2873 2872 2871 2870 2869 2868 2867 2865 2864 2864 2863 2862 2860 2859 2858 2857 2855 2854 2852 2850 2849 2847 2845 2844 2842
2924 2923 2922 2921 2920 2919 2919 2918 2918 2918 2918 2918 2917 2917 2917 2916 2916 2915 2914 2913 2913 2912 2911 2910 2909 2907 2906 2905 2903 2901 2900 2898 2896 2895 2894 2894 2893 2892 2891 2890 2889 2889 2888 2887 2886 2886 2885 2884 2884 2883 2883 2882 2881 2880 2879 2879 2878 2877 2876 2875 2874 2874 2873 2872 2870 2869 2869 2867 2866 2865 2864 2863 2862 2860 2859 2858 2857 2855 2853 2852 2850 2848 2846 2844 2843 2841
2923 2922 2921 2919 2919 2918 2918 2918 2918 2918 2918 2917 2917 2917 2916 2916 2915 2915 2914 2913 2912 2911 2910 2909 2908 2907 2906 2904 2903 2901 2900 2898 2897 2895 2894 2894 2893 2892 2892 2891 2890 2889 2889 2888 2887 2886 2886 2885 2884 2884 2883 2882 2882 2881 2880 2879 2878 2877 2876 2876 2875 2874 2873 2872 2871 2870 2869 2868 2867 2866 2865 2864 2862 2861 2859 2858 2856 2855 2853 2851 2849 2848 2846 2844 2843 2841
2922 2921 2920 2919 2918 2918 2917 2917 2917 2917 2917 2917 2917 2917 2916 2916 2915 2914 2914 2913 2912 2911 2910 2909 2908 2907 2906 2904 2903 2901 2899 2898 2897 2896 2895 2894 2893 2893 2892 2891 2890 2890 2889 2889 2888 2887 2887 2886 2885 2884 2884 2883 2882 2881 2881 2880 2879 2878 2877 2876 2875 2874 2874 2873 2872 2871 2869 2869 2868 2867 2865 2864 2863 2861 2859 2858 2856 2854 2853 2851 2849 2847 2845 2844 2842 2841
2921 2920 2919 2918 2917 2917 2917 2917 2917 2917 2917 2917 2917 2916 2916 2915 2915 2914 2914 2913 2912 2911 2910 2909 2908 2907 2905 2904 2903 2901 2899 2898 2897 2896 2895 2894 2894 2893 2892 2891 2891 2890 2890 2889 2889 2888 2887 2886 2886 2885 2884 2884 2883 2882 2881 2880 2879 2879 2878 2877 2876 2875 2874 2873 2872 2871 2870 2869 2868 2867 2866 2864 2863 2861 2859 2858 2856 2854 2852 2850 2849 2847 2845 2843 2842 2841